EWG86GR EDDS-LIMC

Flight info

Callsign EWG86GR
Flight time 0h 51m
Altitude 23000
Route ROTWE5B/25 ROTWE Y126 TUBLO N850 NATOR DCT TRA DCT BASGO Z424 RIXUV
Aircraft A319/M-SDE3FGHIRWY/LB1

Departure

Time 2026-05-05 19:00
Airport Stuttgart Airport (EDDS)

Arrival

Time 2026-05-05 19:51
Airport Milan Malpensa International Airport (LIMC)
Time Latitude Longitude Altitude Speed Heading
2026-05-05 18:40 48.68898 9.19427 1315 ft 0 kts 344°
2026-05-05 18:48 48.68884 9.19434 1315 ft 4 kts 347°
2026-05-05 18:49 48.68858 9.19441 1314 ft 4 kts 355°
2026-05-05 18:49 48.68831 9.19440 1313 ft 4 kts 19°
2026-05-05 18:49 48.68814 9.19421 1313 ft 2 kts 73°
2026-05-05 18:49 48.68814 9.19420 1313 ft 0 kts 74°
2026-05-05 18:53 48.68816 9.19431 1313 ft 4 kts 74°
2026-05-05 18:53 48.68830 9.19506 1311 ft 11 kts 74°
2026-05-05 18:53 48.68859 9.19662 1309 ft 20 kts 74°
2026-05-05 18:53 48.68889 9.19828 1304 ft 17 kts 82°
2026-05-05 18:54 48.68815 9.19918 1297 ft 9 kts 119°
2026-05-05 18:54 48.68842 9.20062 1294 ft 19 kts 69°
2026-05-05 18:54 48.68889 9.20305 1288 ft 29 kts 74°
2026-05-05 18:54 48.68943 9.20592 1281 ft 28 kts 73°
2026-05-05 18:55 48.68992 9.20844 1276 ft 15 kts 74°
2026-05-05 18:55 48.69031 9.21050 1270 ft 25 kts 74°
2026-05-05 18:55 48.69083 9.21329 1263 ft 14 kts 74°
2026-05-05 18:55 48.69121 9.21526 1267 ft 25 kts 73°
2026-05-05 18:56 48.69157 9.21714 1254 ft 32 kts 74°
2026-05-05 18:56 48.69211 9.21999 1253 ft 13 kts 73°
2026-05-05 18:56 48.69240 9.22151 1251 ft 20 kts 74°
2026-05-05 18:56 48.69288 9.22405 1238 ft 30 kts 74°
2026-05-05 18:57 48.69341 9.22683 1232 ft 23 kts 73°
2026-05-05 18:57 48.69394 9.22967 1226 ft 29 kts 74°
2026-05-05 18:57 48.69426 9.23136 1223 ft 19 kts 74°
2026-05-05 18:57 48.69471 9.23372 1218 ft 28 kts 74°
2026-05-05 18:58 48.69522 9.23640 1213 ft 18 kts 74°
2026-05-05 18:58 48.69561 9.23850 1208 ft 25 kts 74°
2026-05-05 18:58 48.69609 9.24134 1201 ft 20 kts 95°
2026-05-05 18:58 48.69509 9.24310 1191 ft 21 kts 165°
2026-05-05 18:59 48.69403 9.24334 1191 ft 11 kts 214°
2026-05-05 18:59 48.69360 9.24156 1194 ft 29 kts 253°
2026-05-05 18:59 48.69242 9.23536 1210 ft 95 kts 254°
2026-05-05 18:59 48.69001 9.22277 1286 ft 146 kts 253°
2026-05-05 19:00 48.68702 9.20828 1980 ft 143 kts 252°
2026-05-05 19:00 48.68410 9.19378 2613 ft 150 kts 254°
2026-05-05 19:00 48.68128 9.17753 3059 ft 168 kts 256°
2026-05-05 19:00 48.67827 9.15943 3529 ft 187 kts 254°
2026-05-05 19:01 48.67460 9.13948 3992 ft 210 kts 253°
2026-05-05 19:01 48.67031 9.11671 4548 ft 237 kts 253°
2026-05-05 19:01 48.66563 9.09235 5543 ft 244 kts 253°
2026-05-05 19:01 48.66083 9.06749 6615 ft 248 kts 253°
2026-05-05 19:02 48.65592 9.04219 7645 ft 253 kts 252°
2026-05-05 19:02 48.65089 9.01639 8675 ft 258 kts 252°
2026-05-05 19:02 48.64576 8.99010 9688 ft 263 kts 252°
2026-05-05 19:02 48.64046 8.96299 10348 ft 279 kts 252°
2026-05-05 19:03 48.63477 8.93386 10887 ft 296 kts 252°
2026-05-05 19:03 48.62899 8.90410 11665 ft 302 kts 252°
2026-05-05 19:03 48.62290 8.87344 12467 ft 306 kts 250°
2026-05-05 19:03 48.61378 8.84415 13264 ft 312 kts 238°
2026-05-05 19:04 48.60077 8.81832 13546 ft 314 kts 227°
2026-05-05 19:04 48.58592 8.79400 13764 ft 316 kts 227°
2026-05-05 19:04 48.57049 8.76874 13839 ft 340 kts 227°
2026-05-05 19:04 48.55382 8.74146 13847 ft 366 kts 227°
2026-05-05 19:05 48.53609 8.71237 13848 ft 385 kts 227°
2026-05-05 19:05 48.51924 8.68049 13847 ft 391 kts 238°
2026-05-05 19:05 48.50768 8.64335 13853 ft 393 kts 251°
2026-05-05 19:05 48.50038 8.60359 13853 ft 394 kts 253°
2026-05-05 19:06 48.49323 8.56397 13849 ft 394 kts 253°
2026-05-05 19:06 48.48594 8.52409 13853 ft 394 kts 253°
2026-05-05 19:06 48.47795 8.48620 13848 ft 393 kts 246°
2026-05-05 19:06 48.46326 8.44976 13852 ft 392 kts 231°
2026-05-05 19:07 48.44341 8.42171 13855 ft 393 kts 216°
2026-05-05 19:07 48.41936 8.40220 13859 ft 395 kts 202°
2026-05-05 19:07 48.39242 8.39181 14244 ft 402 kts 193°
2026-05-05 19:07 48.36492 8.38326 14857 ft 404 kts 193°
2026-05-05 19:08 48.33763 8.37457 15411 ft 407 kts 193°
2026-05-05 19:08 48.30980 8.36559 15964 ft 411 kts 193°
2026-05-05 19:08 48.28177 8.35655 16491 ft 414 kts 193°
2026-05-05 19:08 48.25350 8.34748 17005 ft 417 kts 193°
2026-05-05 19:09 48.22501 8.33843 17498 ft 420 kts 193°
2026-05-05 19:09 48.19622 8.32935 17991 ft 423 kts 193°
2026-05-05 19:09 48.16681 8.32406 18421 ft 428 kts 181°
2026-05-05 19:09 48.13706 8.32899 18839 ft 432 kts 172°
2026-05-05 19:10 48.10736 8.33628 19300 ft 433 kts 172°
2026-05-05 19:10 48.07753 8.34364 19746 ft 435 kts 172°
2026-05-05 19:10 48.04760 8.35101 20168 ft 436 kts 172°
2026-05-05 19:10 48.01762 8.35830 20561 ft 438 kts 172°
2026-05-05 19:11 47.98744 8.36557 20929 ft 440 kts 172°
2026-05-05 19:11 47.95721 8.37279 21274 ft 441 kts 172°
2026-05-05 19:11 47.92685 8.38007 21605 ft 443 kts 172°
2026-05-05 19:11 47.89642 8.38738 21922 ft 444 kts 172°
2026-05-05 19:12 47.86588 8.39471 22200 ft 445 kts 172°
2026-05-05 19:12 47.83522 8.40210 22472 ft 446 kts 172°
2026-05-05 19:12 47.80448 8.40952 22748 ft 447 kts 172°
2026-05-05 19:12 47.77413 8.41677 22875 ft 448 kts 172°
2026-05-05 19:13 47.74350 8.42407 22899 ft 448 kts 172°
2026-05-05 19:13 47.71284 8.43138 22880 ft 448 kts 172°
2026-05-05 19:13 47.68238 8.43600 22899 ft 447 kts 180°
2026-05-05 19:13 47.65118 8.43653 22899 ft 448 kts 180°
2026-05-05 19:14 47.62040 8.43759 22899 ft 448 kts 180°
2026-05-05 19:14 47.58922 8.43888 22895 ft 448 kts 180°
2026-05-05 19:14 47.55807 8.44013 22896 ft 448 kts 180°
2026-05-05 19:14 47.52804 8.44118 22895 ft 448 kts 180°
2026-05-05 19:15 47.49686 8.44211 22896 ft 448 kts 180°
2026-05-05 19:15 47.46574 8.44292 22880 ft 448 kts 181°
2026-05-05 19:15 47.43456 8.44365 22877 ft 448 kts 181°
2026-05-05 19:15 47.40339 8.44434 22877 ft 448 kts 181°
2026-05-05 19:16 47.37295 8.44505 22874 ft 448 kts 181°
2026-05-05 19:16 47.34322 8.44573 22877 ft 448 kts 181°
2026-05-05 19:16 47.31202 8.44646 22881 ft 448 kts 181°
2026-05-05 19:16 47.28075 8.44726 22883 ft 448 kts 181°
2026-05-05 19:17 47.24958 8.44807 22884 ft 449 kts 181°
2026-05-05 19:17 47.21995 8.44882 22889 ft 449 kts 181°
2026-05-05 19:17 47.18965 8.44959 22890 ft 449 kts 181°
2026-05-05 19:17 47.16027 8.45033 22893 ft 450 kts 181°
2026-05-05 19:18 47.12899 8.45112 22904 ft 450 kts 181°
2026-05-05 19:18 47.09806 8.45191 22913 ft 450 kts 181°
2026-05-05 19:18 47.06679 8.45272 22911 ft 450 kts 181°
2026-05-05 19:18 47.03594 8.45350 22915 ft 449 kts 181°
2026-05-05 19:19 47.00460 8.45431 22921 ft 449 kts 181°
2026-05-05 19:19 46.97496 8.45507 22929 ft 449 kts 181°
2026-05-05 19:19 46.94372 8.45583 22928 ft 449 kts 181°
2026-05-05 19:19 46.91244 8.45654 22927 ft 449 kts 181°
2026-05-05 19:20 46.88118 8.45726 22934 ft 450 kts 181°
2026-05-05 19:20 46.84989 8.45801 22934 ft 449 kts 181°
2026-05-05 19:20 46.81868 8.45874 22951 ft 448 kts 181°
2026-05-05 19:20 46.78740 8.45947 22956 ft 448 kts 181°
2026-05-05 19:21 46.75669 8.46024 22958 ft 447 kts 181°
2026-05-05 19:21 46.72521 8.46107 22962 ft 447 kts 181°
2026-05-05 19:21 46.69414 8.46191 22971 ft 446 kts 181°
2026-05-05 19:21 46.66312 8.46273 22974 ft 446 kts 181°
2026-05-05 19:22 46.63245 8.46348 22980 ft 445 kts 181°
2026-05-05 19:22 46.60148 8.46421 22988 ft 444 kts 181°
2026-05-05 19:22 46.57055 8.46492 22986 ft 443 kts 181°
2026-05-05 19:22 46.53967 8.46566 22987 ft 443 kts 181°
2026-05-05 19:23 46.50890 8.46641 22985 ft 443 kts 181°
2026-05-05 19:23 46.47809 8.46717 22990 ft 442 kts 181°
2026-05-05 19:23 46.44736 8.46793 22642 ft 440 kts 181°
2026-05-05 19:23 46.41686 8.46871 22365 ft 437 kts 182°
2026-05-05 19:24 46.38652 8.46949 22097 ft 435 kts 182°
2026-05-05 19:24 46.35629 8.47028 21830 ft 433 kts 182°
2026-05-05 19:24 46.32618 8.47103 21576 ft 432 kts 182°
2026-05-05 19:24 46.29619 8.47174 21314 ft 431 kts 182°
2026-05-05 19:25 46.26636 8.47268 21044 ft 421 kts 181°
2026-05-05 19:25 46.23775 8.47522 20798 ft 405 kts 179°
2026-05-05 19:25 46.21022 8.47910 20545 ft 391 kts 177°
2026-05-05 19:25 46.18351 8.48357 20293 ft 382 kts 176°
2026-05-05 19:26 46.15742 8.48804 20045 ft 373 kts 177°
2026-05-05 19:26 46.13189 8.49225 19799 ft 365 kts 177°
2026-05-05 19:26 46.10736 8.49783 19551 ft 360 kts 169°
2026-05-05 19:26 46.08391 8.50955 19304 ft 353 kts 164°
2026-05-05 19:27 46.06147 8.52168 19060 ft 336 kts 163°
2026-05-05 19:27 46.04013 8.53329 18824 ft 321 kts 164°
2026-05-05 19:27 46.01945 8.54450 18574 ft 306 kts 164°
2026-05-05 19:27 46.00012 8.55491 18346 ft 295 kts 165°
2026-05-05 19:28 45.98101 8.56512 18087 ft 291 kts 165°
2026-05-05 19:28 45.96206 8.57522 17828 ft 290 kts 165°
2026-05-05 19:28 45.94303 8.58535 17478 ft 293 kts 164°
2026-05-05 19:28 45.92396 8.59554 17253 ft 290 kts 164°
2026-05-05 19:29 45.90527 8.60592 17091 ft 287 kts 160°
2026-05-05 19:29 45.88803 8.62062 16800 ft 289 kts 148°
2026-05-05 19:29 45.87235 8.63873 16340 ft 289 kts 146°
2026-05-05 19:29 45.85677 8.65689 15896 ft 288 kts 146°
2026-05-05 19:30 45.84129 8.67492 15465 ft 286 kts 146°
2026-05-05 19:30 45.82588 8.69281 14992 ft 285 kts 146°
2026-05-05 19:30 45.81044 8.71068 14526 ft 285 kts 145°
2026-05-05 19:30 45.79499 8.72853 14154 ft 286 kts 145°
2026-05-05 19:31 45.77940 8.74651 13798 ft 291 kts 145°
2026-05-05 19:31 45.76356 8.76413 13660 ft 284 kts 150°
2026-05-05 19:31 45.74655 8.77777 13515 ft 278 kts 156°
2026-05-05 19:31 45.72955 8.79080 13303 ft 275 kts 155°
2026-05-05 19:32 45.71274 8.80375 12879 ft 274 kts 155°
2026-05-05 19:32 45.69605 8.81662 12478 ft 272 kts 155°
2026-05-05 19:32 45.67940 8.82942 12072 ft 270 kts 155°
2026-05-05 19:32 45.66295 8.84205 11671 ft 268 kts 155°
2026-05-05 19:33 45.64658 8.85462 11286 ft 266 kts 155°
2026-05-05 19:33 45.63031 8.86709 11095 ft 265 kts 155°
2026-05-05 19:33 45.61373 8.87753 10891 ft 262 kts 166°
2026-05-05 19:33 45.59680 8.88264 10700 ft 259 kts 172°
2026-05-05 19:34 45.57907 8.88742 10501 ft 259 kts 172°
2026-05-05 19:34 45.56145 8.89219 10263 ft 257 kts 172°
2026-05-05 19:34 45.54393 8.89694 9922 ft 256 kts 171°
2026-05-05 19:35 45.50955 8.90632 9432 ft 245 kts 171°
2026-05-05 19:35 45.49290 8.91085 9144 ft 242 kts 171°
2026-05-05 19:35 45.47636 8.91531 8821 ft 241 kts 171°
2026-05-05 19:35 45.45990 8.91976 8508 ft 240 kts 171°
2026-05-05 19:36 45.44350 8.92422 8205 ft 239 kts 171°
2026-05-05 19:36 45.42759 8.92856 7905 ft 238 kts 171°
2026-05-05 19:36 45.41127 8.93301 7671 ft 238 kts 171°
2026-05-05 19:36 45.39506 8.93741 7519 ft 237 kts 171°
2026-05-05 19:37 45.37887 8.94184 7338 ft 236 kts 171°
2026-05-05 19:37 45.36277 8.94624 7188 ft 235 kts 171°
2026-05-05 19:37 45.34676 8.95058 7036 ft 233 kts 171°
2026-05-05 19:37 45.33082 8.95486 6856 ft 233 kts 171°
2026-05-05 19:38 45.31495 8.95915 6680 ft 232 kts 171°
2026-05-05 19:38 45.29907 8.96346 6503 ft 232 kts 171°
2026-05-05 19:38 45.28327 8.96775 6327 ft 231 kts 171°
2026-05-05 19:38 45.26782 8.97194 6179 ft 228 kts 171°
2026-05-05 19:39 45.25321 8.97591 6059 ft 225 kts 171°
2026-05-05 19:39 45.23792 8.98006 5934 ft 222 kts 171°
2026-05-05 19:39 45.22290 8.98414 5801 ft 218 kts 171°
2026-05-05 19:39 45.20812 8.98814 5679 ft 214 kts 171°
2026-05-05 19:40 45.19359 8.99203 5553 ft 211 kts 171°
2026-05-05 19:40 45.17932 8.99585 5413 ft 207 kts 171°
2026-05-05 19:40 45.16512 8.99786 5225 ft 204 kts 190°
2026-05-05 19:40 45.15270 8.98904 5050 ft 203 kts 225°
2026-05-05 19:41 45.14520 8.97231 4846 ft 205 kts 242°
2026-05-05 19:41 45.13933 8.95382 4635 ft 207 kts 250°
2026-05-05 19:41 45.13735 8.93360 4403 ft 210 kts 271°
2026-05-05 19:41 45.14266 8.91436 4181 ft 216 kts 308°
2026-05-05 19:42 45.15475 8.90181 4026 ft 219 kts 331°
2026-05-05 19:42 45.16841 8.89215 3981 ft 219 kts 333°
2026-05-05 19:42 45.18222 8.88285 3980 ft 220 kts 333°
2026-05-05 19:42 45.19605 8.87366 3981 ft 219 kts 334°
2026-05-05 19:43 45.20983 8.86438 3984 ft 219 kts 334°
2026-05-05 19:43 45.21912 8.85809 3981 ft 219 kts 334°
2026-05-05 19:43 45.23268 8.84888 3980 ft 219 kts 334°
2026-05-05 19:43 45.24659 8.83945 4000 ft 218 kts 334°
2026-05-05 19:44 45.26092 8.83228 3998 ft 219 kts 347°
2026-05-05 19:44 45.27568 8.82966 4001 ft 218 kts 353°
2026-05-05 19:44 45.29089 8.82646 4002 ft 218 kts 350°
2026-05-05 19:44 45.30584 8.82255 4004 ft 218 kts 349°
2026-05-05 19:45 45.32076 8.81848 4005 ft 218 kts 349°
2026-05-05 19:45 45.33566 8.81440 4007 ft 218 kts 349°
2026-05-05 19:45 45.35053 8.81033 4009 ft 218 kts 349°
2026-05-05 19:45 45.36540 8.80627 4009 ft 218 kts 349°
2026-05-05 19:46 45.38030 8.80219 4006 ft 218 kts 349°
2026-05-05 19:46 45.39522 8.79811 4006 ft 218 kts 349°
2026-05-05 19:46 45.41007 8.79405 4005 ft 216 kts 349°
2026-05-05 19:46 45.42451 8.79009 3998 ft 209 kts 349°
2026-05-05 19:47 45.43832 8.78630 3999 ft 195 kts 349°
2026-05-05 19:47 45.45134 8.78273 4010 ft 187 kts 349°
2026-05-05 19:47 45.46415 8.77922 3772 ft 187 kts 349°
2026-05-05 19:47 45.47684 8.77573 3530 ft 184 kts 349°
2026-05-05 19:48 45.48940 8.77228 3288 ft 183 kts 349°
2026-05-05 19:48 45.50189 8.76885 3044 ft 182 kts 350°
2026-05-05 19:48 45.51391 8.76555 2808 ft 181 kts 350°
2026-05-05 19:48 45.52627 8.76215 2565 ft 180 kts 351°
2026-05-05 19:49 45.53859 8.75876 2320 ft 180 kts 351°
2026-05-05 19:49 45.55045 8.75549 2098 ft 163 kts 351°
2026-05-05 19:49 45.56086 8.75261 1876 ft 143 kts 351°
2026-05-05 19:49 45.57020 8.75004 1667 ft 132 kts 351°
2026-05-05 19:50 45.57903 8.74768 1486 ft 127 kts 351°
2026-05-05 19:50 45.58759 8.74529 1337 ft 125 kts 350°
2026-05-05 19:50 45.59610 8.74283 1150 ft 124 kts 349°
2026-05-05 19:50 45.60450 8.74053 991 ft 121 kts 349°
2026-05-05 19:51 45.61272 8.73833 834 ft 119 kts 349°
2026-05-05 19:51 45.62073 8.73611 745 ft 111 kts 349°
2026-05-05 19:51 45.62722 8.73436 740 ft 72 kts 349°
2026-05-05 19:51 45.63099 8.73307 741 ft 35 kts 328°
2026-05-05 19:52 45.63264 8.73069 741 ft 32 kts 303°
2026-05-05 19:52 45.63341 8.72904 741 ft 13 kts 304°
2026-05-05 19:52 45.63369 8.72845 741 ft 0 kts 303°
2026-05-05 19:52 45.63371 8.72839 740 ft 3 kts 303°
2026-05-05 19:53 45.63381 8.72818 741 ft 3 kts 303°
2026-05-05 19:53 45.63404 8.72759 741 ft 10 kts 292°
2026-05-05 19:53 45.63414 8.72621 741 ft 18 kts 263°
2026-05-05 19:53 45.63383 8.72420 741 ft 24 kts 257°
2026-05-05 19:54 45.63358 8.72244 741 ft 17 kts 258°
2026-05-05 19:54 45.63340 8.72115 741 ft 8 kts 259°
2026-05-05 19:54 45.63330 8.72037 740 ft 5 kts 259°
2026-05-05 19:54 45.63327 8.72013 741 ft 5 kts 259°
2026-05-05 19:55 45.63326 8.72008 741 ft 1 kts 259°
2026-05-05 19:55 45.63324 8.71994 741 ft 2 kts 259°
2026-05-05 19:55 45.63321 8.71982 741 ft 1 kts 239°
2026-05-05 19:55 45.63296 8.71965 741 ft 7 kts 181°
2026-05-05 19:56 45.63229 8.71984 741 ft 13 kts 170°
2026-05-05 19:56 45.63122 8.72012 741 ft 17 kts 169°
2026-05-05 19:56 45.63004 8.72043 741 ft 17 kts 169°
2026-05-05 19:56 45.62883 8.72076 741 ft 18 kts 169°
2026-05-05 19:57 45.62791 8.72102 741 ft 7 kts 168°
2026-05-05 19:57 45.62741 8.72118 741 ft 7 kts 168°
2026-05-05 19:57 45.62689 8.72132 741 ft 8 kts 169°
2026-05-05 19:57 45.62636 8.72146 741 ft 8 kts 170°
2026-05-05 19:58 45.62582 8.72160 741 ft 8 kts 169°
2026-05-05 19:58 45.62527 8.72175 741 ft 8 kts 168°
2026-05-05 19:58 45.62473 8.72190 741 ft 3 kts 169°
2026-05-05 19:58 45.62471 8.72190 741 ft 0 kts 169°
2026-05-05 19:59 45.62460 8.72193 740 ft 3 kts 169°
2026-05-05 19:59 45.62427 8.72201 741 ft 7 kts 176°
2026-05-05 19:59 45.62379 8.72168 740 ft 10 kts 238°
2026-05-05 20:00 45.62359 8.72054 741 ft 14 kts 258°
2026-05-05 20:00 45.62340 8.71911 741 ft 16 kts 259°
2026-05-05 20:00 45.62319 8.71756 741 ft 16 kts 260°
2026-05-05 20:00 45.62309 8.71595 741 ft 15 kts 292°
2026-05-05 20:01 45.62371 8.71578 741 ft 7 kts 11°
2026-05-05 20:01 45.62381 8.71581 740 ft 0 kts 11°